User: anonymous   Login
Location: Unspecified
(0.0000°N, 0.0000°E)
Time: 07:48:41
(UTC+02:00)
Language:

Cosmos 2082 Rocket - Orbit

View from above orbital plane
View from above orbital plane
View from above satellite
View from above satellite

Ground track
Ground track

The orbit data is extracted from the following two-line orbital elements,

1 20625U 90046B   17228.52496461  .00000117  00000-0  85652-4 0  9990
2 20625  71.0006  22.5008 0013981   6.8695 353.2616 14.14622510406376
Epoch (UTC): 16 August 2017 12:35:56
Eccentricity: 0.0013981
inclination: 71.0006°
perigee height: 833 km
apogee height: 853 km
right ascension of ascending node: 22.5008°
argument of perigee: 6.8695°
revolutions per day: 14.14622510
mean anomaly at epoch: 353.2616°
orbit number at epoch: 40637

The dashed part of the orbit path shows where the satellite is in the earth's shadow,  

DLR